Location: Laverne
(36.7100°N, 99.8930°W)
Time: 20:50:16
(UTC-06:00)

Daily predictions for brighter satellites

Satellite Brightness Start Highest point End
(mag) Time Altitude Azimuth Time Altitude Azimuth Time Altitude Azimuth
PAYLOAD A 3.9 17:45:04 10° SSE 17:49:49 75° ENE 17:54:46 10° N
Hubble Space Telescope 3.6 17:49:53 10° SW 17:51:47 13° SSW 17:53:41 10° S
Tiangong 1 2.3 17:51:37 10° SSW 17:54:16 28° SSE 17:56:55 10° E
Cosmos 1536 Rocket 4.2 17:51:43 10° SSE 17:55:44 35° E 17:59:48 10° NNE
Okean 1 4.0 17:57:48 10° SSE 18:01:25 33° E 18:05:06 10° NNE
BREEZE-M DEB (TANK) 4.0 18:00:43 10° WNW 18:02:03 14° NNW 18:03:20 10° NNE
YAOGAN 1 2.6 17:59:46 10° SSE 18:04:00 59° ENE 18:08:17 10° N
SPOT 3 Rocket 3.5 17:59:15 10° SSE 18:04:24 70° ENE 18:09:33 10° N
Cosmos 1812 2.8 18:01:28 10° S 18:05:13 54° E 18:09:00 10° NNE
Cosmos 1536 4.2 18:01:20 10° NNW 18:05:14 45° W 18:09:07 10° SSW
Meteor 1-18 Rocket 4.2 18:03:37 10° S 18:09:10 66° E 18:14:50 10° NNE
CZ-3A R/B 4.0 18:04:50 10° W 18:09:22 42° NNW 18:29:38 10° NE
COSMOS 2487 4.2 18:09:15 10° NNE 18:11:23 15° ENE 18:13:00 12° E
USA 234 4.0 18:05:14 10° NE 18:11:27 47° NW 18:17:37 10° WSW
Cosmos 1844 Rocket 3.4 18:06:01 10° SW 18:11:28 54° WNW 18:16:59 10° NNE
ISS -1.0 18:09:44 10° WNW 18:11:59 17° NNW 18:14:14 10° NNE
Cosmos 921 Rocket 4.5 18:09:57 10° SE 18:12:46 17° E 18:14:34 14° ENE
AQUARIUS 4.1 18:09:23 10° SSE 18:13:52 85° ENE 18:18:23 10° N
USA 32 4.2 18:11:55 10° S 18:17:08 77° W 18:22:22 10° N
Cosmos 1346 Rocket 3.5 18:13:44 10° SSE 18:17:15 33° E 18:20:46 10° NNE
BREEZE M DEB (TANK) 4.4 18:15:11 10° NNW 18:18:06 21° NNE 18:21:53 14° ENE
ASTRO F (AKARI) 4.1 18:19:09 10° NNE 18:22:18 81° ESE 18:25:26 10° S
NOSS 3-3 (A) 4.0 18:18:35 10° SSW 18:24:42 85° ESE 18:31:18 10° NNE
NOSS 3-3 (C) 4.0 18:18:41 10° SSW 18:24:48 84° ESE 18:31:24 10° NNE
IDEFIX/ARIANE 42P 2.7 18:19:53 10° S 18:25:04 78° WSW 18:30:17 10° NNW
SL-8 Rocket 4.3 18:19:43 10° NNW 18:25:50 71° W 18:31:56 10° S
CORIOLIS 4.2 18:20:48 10° SSE 18:26:14 86° WSW 18:31:39 10° NNW
Cosmos 1455 Rocket 3.0 18:22:54 10° N 18:27:20 85° E 18:31:46 10° S
SKYMED 2 3.7 18:23:58 10° NNE 18:28:13 50° E 18:32:25 10° S
Cosmos 494 Rocket 3.9 18:23:12 10° NNW 18:28:28 75° ENE 18:33:42 10° SSE
Cosmos 1844 4.4 18:23:03 10° SW 18:28:28 52° WNW 18:33:54 10° NNE
Okean 1-7 Rocket 4.4 18:25:31 10° SSE 18:29:25 29° E 18:32:13 16° NE
Cosmos 2297 4.1 18:25:26 10° S 18:30:43 43° ESE 18:35:04 15° NE
Delta 2 Rocket 4.0 18:32:09 10° SW 18:35:46 42° SSE 18:38:03 22° E
ATLAS 2AS CENTAUR R/B 3.0 18:27:57 10° NNW 18:36:02 89° ENE 18:43:29 10° SSE
Cosmos 2366 rocket 4.2 18:30:49 10° N 18:37:10 80° W 18:43:27 10° S
CZ-4 R/B 3.2 18:33:37 10° SSW 18:37:27 35° W 18:41:17 10° NNW
OTV 4 2.7 18:37:27 10° W 18:39:56 23° SSW 18:42:25 10° SSE
MSX 3.8 18:34:13 10° SSE 18:39:58 87° WSW 18:45:45 10° NNW
SMAP 4.1 18:36:13 10° S 18:40:41 48° W 18:45:12 10° NNW
Cosmos 2218 Rocket 4.5 18:35:41 10° NNW 18:41:53 64° W 18:47:58 10° S
SL-24 DEB 4.3 18:39:39 10° N 18:44:25 84° W 18:49:06 10° S
MONITOR-E 4.3 18:41:15 10° S 18:44:25 76° WSW 18:47:38 10° NNW
Cosmos 2278 Rocket 2.6 18:39:17 10° SSW 18:44:52 65° WNW 18:50:30 10° NNE
Cosmos 1238 Rocket 4.3 18:42:53 10° SW 18:45:27 27° W 18:48:03 10° NNW
CZ-2C R/B 3.8 18:43:12 10° S 18:47:52 42° W 18:52:42 10° NNW
Cosmos 1809 Rocket 4.4 18:41:58 10° N 18:48:06 69° E 18:54:11 10° SSE
Cosmos 1975 2.8 18:44:17 10° N 18:48:21 83° W 18:52:23 10° S
Cosmos 1241 Rocket 4.5 18:43:54 10° NNW 18:50:33 73° ENE 18:57:05 10° SE
Meteor 1-19 Rocket 4.3 18:49:48 10° S 18:55:24 56° E 19:00:54 11° NNE
Cosmos 2251 Rocket 4.4 18:50:21 10° NNW 18:55:32 51° WSW 19:00:39 10° S
Timation 2 Rocket 4.3 18:49:57 10° NNW 18:56:37 52° ENE 19:03:17 10° SE
Genesis I 3.3 18:54:26 10° NNW 18:58:15 49° ENE 18:58:26 48° ENE
Cosmos 1484 Rocket 3.2 18:59:21 10° S 19:03:04 60° W 19:06:46 10° NNW
TIMED 4.4 19:00:29 10° SSW 19:04:50 89° ESE 19:06:54 31° NNE
NOAA 12 4.1 19:00:07 10° SSE 19:05:16 57° ENE 19:10:26 10° N
Cosmos 1743 3.9 19:10:05 29° SSE 19:10:05 29° SSE 19:12:08 10° SSE
Cosmos 1821 Rocket 3.9 19:06:00 10° N 19:12:01 57° E 19:17:59 10° SSE
Cosmos 2082 Rocket 2.2 19:07:14 10° NNW 19:12:48 56° ENE 19:15:49 27° SE
Meteor 1-13 Rocket 4.3 19:07:11 10° S 19:12:49 82° W 19:18:37 10° N
METEOR-M 4.1 19:08:26 10° SSE 19:13:39 58° ENE 19:18:53 10° N
Cosmos 1833 Rocket 2.8 19:08:49 10° N 19:14:17 48° ENE 19:14:56 46° E
COSMO-SKYMED 1 3.7 19:12:05 10° N 19:16:11 42° WNW 19:20:17 10° SW
Cosmos 1500 4.5 19:13:59 10° NNW 19:17:36 41° W 19:21:13 10° SSW
NOSS 2-1 (D) 3.2 19:17:06 10° SSW 19:20:54 84° NW 19:20:55 84° NW
NOSS 2-1 (C) 3.2 19:17:46 10° SSW 19:21:34 85° WNW 19:21:34 85° WNW
Meteor 1-28 Rocket 3.7 19:20:30 38° NNW 19:21:42 59° WNW 19:25:25 10° SSW
Meteor 1-23 Rocket 4.1 19:19:02 10° S 19:24:40 63° E 19:25:42 53° NE
CZ-3B DEB 3.9 19:21:51 10° WNW 19:26:12 31° NNW 19:30:57 21° NNE
Tiangong 1 3.3 19:27:26 10° W 19:28:54 24° W 19:28:54 24° W
GEOS 3 Rocket 3.6 19:34:43 37° SSE 19:36:46 78° WSW 19:41:54 10° NW
Meteor 2-4 Rocket 3.5 19:33:58 10° S 19:39:23 82° W 19:40:40 53° N
NOSS 2-1 (E) 4.1 19:36:25 10° SW 19:39:32 49° W 19:39:32 49° W
Cosmos 2056 Rocket 3.6 19:36:38 10° S 19:41:14 63° SSE 19:41:14 63° SSE
Cosmos 1025 Rocket 3.6 19:40:35 10° SSW 19:44:25 55° WSW 19:44:25 55° WSW
Cosmos 1624 Rocket 4.4 19:50:40 10° SSW 19:54:56 59° SW 19:54:56 59° SW
NOSS 3-4 (A) 4.3 20:04:39 10° NNW 20:09:29 46° N 20:09:29 46° N
NOSS 3-4 (C) 4.4 20:04:46 10° NNW 20:09:33 45° N 20:09:33 45° N
FALCON 9 R/B 2.9 19:59:17 10° W 20:15:38 77° SSW 20:15:38 77° SSW
ATLAS 3B CENTAUR R/B 4.1 20:44:19 10° W 20:53:29 35° SW 20:53:29 35° SW
